This demonstration page uses our WeatherBlox Daily Observations layout. Learn more.

Left ArrowRight Arrow

41.55636, -103.73856

Hourly Observations for December 11, 2021

Temp ( °F °C ) Dew Point ( °F °C ) Humidity (%) Winds ( mph kmh ) Pressure ( in mb ) Visibility ( mi km ) Precip ( " mm )
12:58 am 00:58 Clear 17 -8.6 8 -13.6 67 67 W 10 17 30.10 1019 10 16 0.00 0.00
1:58 am 01:58 Clear 22 -5.8 10 -12.3 61 61 WNW 26 43 30.20 1023 10 16 0.00 0.00
2:58 am 02:58 Clear 20 -6.6 10 -12.4 64 64 WNW 15 24 30.21 1023 10 16 0.00 0.00
3:58 am 03:58 Clear 20 -6.9 10 -12.1 67 67 NW 17 28 30.22 1023 10 16 0.00 0.00
4:58 am 04:58 Clear 20 -6.4 10 -12.1 64 64 WNW 18 30 30.21 1023 10 16 0.00 0.00
5:58 am 05:58 Mostly Cloudy 24 -4.5 10 -12 56 56 WNW 21 33 30.18 1022 10 16 0.00 0.00
6:58 am 06:58 Clear 23 -5.1 10 -12.3 57 57 WNW 15 24 30.21 1023 10 16 0.00 0.00
7:58 am 07:58 Sunny 21 -6 7 -13.9 54 54 SW 12 19 30.23 1024 10 16 0.00 0.00
8:58 am 08:58 Sunny 26 -3.4 8 -13.4 46 46 W 14 22 30.18 1022 10 16 0.00 0.00
9:58 am 09:58 Sunny 29 -1.5 8 -13.1 41 41 W 20 31 30.13 1020 10 16 0.00 0.00
10:58 am 10:58 Sunny 32 0.2 10 -12.4 39 39 WNW 21 33 30.08 1019 10 16 0.00 0.00
11:58 am 11:58 Sunny 35 1.4 12 -11.3 39 39 WNW 29 46 30.06 1018 10 16 0.00 0.00
12:58 pm 12:58 Sunny 36 2.4 15 -9.7 41 41 WNW 23 37 29.99 1016 10 16 0.00 0.00
1:58 pm 13:58 Sunny 40 4.4 15 -9.6 36 36 W 12 19 29.96 1015 10 16 0.00 0.00
2:58 pm 14:58 Sunny 41 4.9 14 -10.2 33 33 W 10 17 29.95 1014 10 16 0.00 0.00
3:58 pm 15:58 Sunny 37 2.9 16 -8.7 43 43 W 10 17 29.96 1015 10 16 0.00 0.00
4:58 pm 16:58 Clear 37 2.6 13 -10.3 38 38 W 16 26 29.97 1015 10 16 0.00 0.00
5:58 pm 17:58 Clear 32 -0.2 6 -14.2 34 34 SW 7 11 30.00 1016 10 16 0.00 0.00
6:58 pm 18:58 Clear 30 -0.9 9 -12.7 41 41 SW 9 15 30.01 1016 10 16 0.00 0.00
7:58 pm 19:58 Clear 31 -0.7 11 -11.5 44 44 WSW 10 17 30.02 1017 10 16 0.00 0.00
8:58 pm 20:58 Clear 34 1.3 12 -11 40 40 W 12 19 29.97 1015 10 16 0.00 0.00
9:58 pm 21:58 Clear 33 0.6 12 -11.3 41 41 SW 6 9 29.95 1014 10 16 0.00 0.00
10:58 pm 22:58 Clear 34 1.3 13 -10.5 41 41 W 8 13 29.93 1014 10 16 0.00 0.00
11:58 pm 23:58 Clear 38 3.2 12 -11.3 34 34 W 12 19 29.91 1013 10 16 0.00 0.00

Powered by AerisWeather